This demonstration page uses our WeatherBlox Daily Observations layout. Learn more.

Left ArrowRight Arrow

38.88101, -77.10428

Hourly Observations for April 4, 2021

Temp ( °F °C ) Dew Point ( °F °C ) Humidity (%) Winds ( mph kmh ) Pressure ( in mb ) Visibility ( mi km ) Precip ( " mm )
12:52 am 00:52 Mostly Cloudy 46 7.8 27 -2.8 47 47 S 5 7 30.25 1024 10 16 0.00 0.00
1:52 am 01:52 Cloudy 47 8.3 25 -3.9 42 42 Calm 30.24 1024 10 16 0.00 0.00
2:52 am 02:52 Cloudy 46 7.8 29 -1.7 51 51 S 6 9 30.22 1023 10 16 0.00 0.00
3:52 am 03:52 Mostly Cloudy 44 6.7 27 -2.8 51 51 SSW 5 7 30.19 1023 10 16 0.00 0.00
4:52 am 04:52 Cloudy 45 7.2 29 -1.7 54 54 SW 5 7 30.18 1022 10 16 0.00 0.00
5:52 am 05:52 Cloudy 45 7.2 28 -2.2 52 52 SSW 7 11 30.17 1022 10 16 0.00 0.00
6:52 am 06:52 Cloudy 45 7.2 26 -3.3 48 48 SSW 7 11 30.16 1021 10 16 0.00 0.00
7:52 am 07:52 Cloudy 46 7.8 26 -3.3 46 46 SSW 8 13 30.16 1021 10 16 0.00 0.00
8:52 am 08:52 Cloudy 49 9.4 27 -2.8 43 43 S 6 9 30.15 1021 10 16 0.00 0.00
9:52 am 09:52 Mostly Cloudy 53 11.7 34 1.1 48 48 S 8 13 30.13 1020 10 16 0.00 0.00
10:52 am 10:52 Mostly Sunny 64 17.8 29 -1.7 27 27 WNW 13 20 30.11 1020 10 16 0.00 0.00
11:52 am 11:52 Mostly Sunny 66 18.9 33 0.6 29 29 WNW 15 24 30.11 1020 10 16 0.00 0.00
12:52 pm 12:52 Mostly Sunny 68 20 35 1.7 30 30 NW 16 26 30.09 1019 10 16 0.00 0.00
1:52 pm 13:52 Mostly Sunny 71 21.7 35 1.7 27 27 NW 13 20 30.07 1018 10 16 0.00 0.00
2:52 pm 14:52 Mostly Sunny 71 21.7 33 0.6 25 25 WNW 14 22 30.04 1017 10 16 0.00 0.00
3:52 pm 15:52 Mostly Sunny 71 21.7 33 0.6 25 25 NW 13 20 30.02 1017 10 16 0.00 0.00
4:52 pm 16:52 Mostly Sunny 72 22.2 33 0.6 24 24 NNW 17 28 30.00 1016 10 16 0.00 0.00
5:52 pm 17:52 Mostly Sunny 72 22.2 31 -0.6 22 22 NNW 10 17 29.99 1016 10 16 0.00 0.00
6:52 pm 18:52 Sunny 71 21.7 25 -3.9 18 18 NNW 12 19 30.00 1016 10 16 0.00 0.00
7:52 pm 19:52 Clear 69 20.6 25 -3.9 19 19 NW 12 19 30.01 1016 10 16 0.00 0.00
8:52 pm 20:52 Clear 66 18.9 26 -3.3 22 22 WNW 7 11 30.03 1017 10 16 0.00 0.00
9:52 pm 21:52 Clear 65 18.3 26 -3.3 23 23 NW 12 19 30.04 1017 10 16 0.00 0.00
10:52 pm 22:52 Clear 64 17.8 25 -3.9 23 23 NW 10 17 30.04 1017 10 16 0.00 0.00
11:52 pm 23:52 Clear 60 15.6 26 -3.3 27 27 NW 9 15 30.06 1018 10 16 0.00 0.00

Powered by AerisWeather